Great Falls, MT

5:44 AM MST on November 18, 2017 (GMT -0700)
Great Falls International

Weather History for KGTF - January, 2013

Change the Weather History Date:

Thursday, January 10, 2013

  Actual Average Record
Temperature  
Mean Temperature 26 °F 25 °F  
Max Temperature 42 °F 35 °F 57 °F (1941)
Min Temperature 10 °F 15 °F -44 °F (1909)
Degree Days  
Heating Degree Days 39 40  
Month to date heating degree days 327 405  
Since 1 July heating degree days 3150 3622  
Cooling Degree Days 0 0  
Month to date cooling degree days 0 0  
Year to date cooling degree days 0 0  
Moisture  
Dew Point 15 °F    
Average Humidity 69    
Maximum Humidity 88    
Minimum Humidity 49    
Precipitation  
Precipitation 0.38 in 0.02 in 0.41 in (1911)
Month to date precipitation 0.38 0.18  
Year to date precipitation 0.38 0.18  
Snow  
Snow 5.90 in 0.30 in 5.90 in (2013)
Month to date snowfall 5.9 3.0  
Since 1 July snowfall 38.2 26.2  
Snow Depth T in    
Sea Level Pressure  
Sea Level Pressure 29.78 in    
Wind  
Wind Speed 16 mph (NNW)    
Max Wind Speed 25 mph    
Max Gust Speed 29 mph    
Visibility 2 miles    
Events Fog , Snow    
T = Trace of Precipitation, MM = Missing Value Source: NWS Daily Summary

Daily Weather History Graph

Daily Weather History Graph

Search for Another Location

Airport or City:

Trip Planner

Search our weather history database for the weather conditions in past years. The results will help you decide how hot, cold, wet, or windy it might be!

Date:

Astronomy

Jan. 10, 2013 Rise Set
Actual Time 8:11 AM MST 4:55 PM MST
Civil Twilight 7:36 AM MST 5:30 PM MST
Nautical Twilight 6:57 AM MST 6:09 PM MST
Astronomical Twilight 6:20 AM MST 6:46 PM MST
Moon 6:53 AM MST (1/10) 4:08 PM MST (1/10)
Length of Visible Light 9h 54m
Length of Day
8h 44m
Waning Crescent, 2% of the Moon is Illuminated
Jan 10
Waning Crescent
Jan 11
New
Jan 18
First Quarter
Jan 26
Full
Feb 3
Last Quarter

Hourly Weather History & Observations

Time (MST) Temp. Windchill Dew Point Humidity Pressure Visibility Wind Dir Wind Speed Gust Speed Precip Events Conditions
12:53 AM 41.0 °F 35.2 °F 24.1 °F 51% 29.58 in 10.0 mi SW 9.2 mph - N/A   Clear
1:53 AM 39.0 °F 35.7 °F 24.1 °F 55% 29.58 in 10.0 mi WNW 4.6 mph - N/A   Clear
2:53 AM 37.9 °F 29.6 °F 26.1 °F 62% 29.61 in 10.0 mi North 13.8 mph - N/A   Clear
3:53 AM 37.0 °F 28.1 °F 28.0 °F 70% 29.62 in 10.0 mi North 15.0 mph - N/A   Scattered Clouds
4:53 AM 32.0 °F 19.5 °F 24.1 °F 73% 29.70 in 10.0 mi North 21.9 mph 28.8 mph N/A   Overcast
5:11 AM 30.2 °F 18.5 °F 23.0 °F 75% 29.64 in 8.0 mi North 17.3 mph 24.2 mph N/A   Overcast
5:18 AM 28.4 °F 16.2 °F 23.0 °F 80% 29.65 in 7.0 mi NNW 17.3 mph - N/A   Overcast
5:39 AM 26.6 °F 12.4 °F 21.2 °F 80% 29.65 in 3.0 mi NNW 21.9 mph 28.8 mph 0.00 in Snow Light Snow
5:42 AM 26.6 °F 12.4 °F 21.2 °F 80% 29.65 in 3.0 mi NNW 21.9 mph - 0.00 in Snow Light Snow
5:50 AM 26.6 °F 12.7 °F 21.2 °F 80% 29.65 in 2.5 mi NNW 20.7 mph 25.3 mph 0.00 in Snow Light Snow
5:53 AM 26.1 °F 11.6 °F 21.0 °F 81% 29.74 in 2.0 mi NNW 21.9 mph 27.6 mph 0.00 in Snow Light Snow
6:22 AM 24.8 °F 10.7 °F 19.4 °F 80% 29.66 in 2.0 mi NNW 19.6 mph 26.5 mph 0.00 in Snow Light Snow
6:37 AM 24.8 °F 11.5 °F 19.4 °F 80% 29.68 in 1.8 mi NNW 17.3 mph - 0.00 in Snow Light Snow
6:53 AM 25.0 °F 11.3 °F 19.9 °F 81% 29.77 in 1.0 mi NNW 18.4 mph - 0.01 in Snow Light Snow
7:02 AM 24.8 °F 12.9 °F 19.4 °F 80% 29.69 in 0.8 mi NNW 13.8 mph - 0.00 in Snow Light Snow
7:21 AM 24.8 °F 12.4 °F 19.4 °F 80% 29.70 in 0.8 mi NNW 15.0 mph - 0.02 in Snow Light Snow
7:53 AM 24.8 °F 12.9 °F 19.4 °F 80% 29.71 in 0.8 mi NNW 13.8 mph - N/A Snow Light Snow
8:04 AM 24.8 °F 12.9 °F 19.4 °F 80% 29.71 in 0.8 mi NW 13.8 mph - 0.00 in Snow Light Snow
8:32 AM 23.0 °F 10.1 °F 19.4 °F 86% 29.72 in 0.8 mi NNW 15.0 mph - 0.02 in Snow Light Snow
8:53 AM 23.0 °F 10.6 °F 18.0 °F 81% 29.82 in 0.5 mi NNW 13.8 mph - 0.03 in Snow Snow
9:53 AM 23.0 °F 12.4 °F 19.0 °F 85% 29.83 in 0.5 mi NW 10.4 mph - 0.04 in Fog , Snow Snow
10:04 AM 23.0 °F 11.7 °F 19.4 °F 86% 29.74 in 0.2 mi NW 11.5 mph - 0.02 in Fog , Snow Snow
10:13 AM 21.2 °F 6.8 °F 17.6 °F 86% 29.74 in 0.2 mi NW 17.3 mph 21.9 mph 0.03 in Fog , Snow Snow
10:49 AM 21.2 °F 7.3 °F 17.6 °F 86% 29.75 in 0.5 mi NNW 16.1 mph 24.2 mph 0.05 in Snow Snow
10:50 AM 21.9 °F 8.7 °F 17.1 °F 82% 29.85 in 0.5 mi NNW 15.0 mph 24.2 mph 0.05 in Snow Snow
11:02 AM 21.2 °F 8.9 °F 17.6 °F 86% 29.74 in 0.8 mi NNW 12.7 mph - 0.01 in Snow Light Snow
11:53 AM 21.9 °F 9.8 °F 17.1 °F 82% 29.83 in 0.8 mi NNW 12.7 mph - 0.02 in Snow Light Snow
12:16 PM 21.2 °F 7.8 °F 15.8 °F 80% 29.72 in 0.5 mi NNW 15.0 mph - 0.01 in Snow Snow
12:26 PM 21.2 °F 7.8 °F 17.6 °F 86% 29.72 in 0.2 mi NNW 15.0 mph - 0.01 in Snow Heavy Snow
12:44 PM 19.4 °F 4.5 °F 15.8 °F 86% 29.72 in 0.5 mi NNW 17.3 mph - 0.02 in Snow Snow
12:53 PM 19.9 °F 4.8 °F 15.1 °F 81% 29.84 in 0.5 mi NNW 18.4 mph - 0.03 in Snow Snow
1:13 PM 19.4 °F 5.0 °F 14.0 °F 80% 29.72 in 0.8 mi NNW 16.1 mph - 0.00 in Snow Light Snow
1:33 PM 19.4 °F 5.0 °F 12.2 °F 74% 29.72 in 0.8 mi NNW 16.1 mph - 0.00 in Snow Light Snow
1:53 PM 19.0 °F 4.5 °F 12.9 °F 77% 29.86 in 0.8 mi NNW 16.1 mph - 0.01 in Snow Light Snow
2:19 PM 19.4 °F 5.5 °F 14.0 °F 80% 29.73 in 0.5 mi NNW 15.0 mph 23.0 mph 0.01 in Snow Snow
2:53 PM 19.0 °F 4.5 °F 15.1 °F 85% 29.87 in 0.5 mi North 16.1 mph - 0.03 in Fog , Snow Snow
3:10 PM 17.6 °F 0.5 °F 12.2 °F 79% 29.75 in 0.5 mi North 21.9 mph 27.6 mph 0.01 in Snow Light Snow
3:35 PM 17.6 °F 1.7 °F 12.2 °F 79% 29.75 in 0.2 mi North 18.4 mph - 0.01 in Snow Heavy Snow
3:53 PM 18.0 °F 4.2 °F 14.0 °F 84% 29.89 in 0.2 mi NNW 13.8 mph - 0.03 in Fog , Snow Snow
4:10 PM 17.6 °F 1.3 °F 12.2 °F 79% 29.76 in 0.5 mi NNW 19.6 mph - 0.00 in Snow Snow
4:27 PM 17.6 °F 2.7 °F 12.2 °F 79% 29.77 in 0.5 mi NNW 16.1 mph - 0.01 in Snow Light Snow
4:53 PM 17.1 °F 0.6 °F 12.0 °F 81% 29.93 in 0.5 mi NNW 19.6 mph - 0.01 in Snow Light Snow
5:05 PM 17.6 °F 1.3 °F 12.2 °F 79% 29.77 in 1.2 mi NNW 19.6 mph - 0.01 in Snow Light Snow
5:40 PM 17.6 °F 0.5 °F 12.2 °F 79% 29.78 in 1.0 mi NNW 21.9 mph 26.5 mph 0.02 in Snow Light Snow
5:53 PM 16.0 °F -0.9 °F 10.9 °F 81% 29.96 in 1.0 mi North 19.6 mph 28.8 mph 0.03 in Snow Light Snow
6:53 PM 15.1 °F -1.1 °F 10.0 °F 80% 29.97 in 1.0 mi NNW 17.3 mph - 0.01 in Snow Light Snow
7:29 PM 14.0 °F -2.0 °F 8.6 °F 79% 29.80 in 0.8 mi NNW 16.1 mph - 0.01 in Snow Light Snow
7:53 PM 12.9 °F -4.9 °F 8.1 °F 81% 30.00 in 0.8 mi NNW 19.6 mph - 0.03 in Snow Light Snow
8:02 PM 12.2 °F -5.8 °F 8.6 °F 85% 29.81 in 1.0 mi NNW 19.6 mph 28.8 mph 0.00 in Snow Light Snow
8:25 PM 12.2 °F -5.8 °F 6.8 °F 79% 29.82 in 1.5 mi NNW 19.6 mph - 0.00 in Snow Light Snow
8:41 PM 12.2 °F -6.3 °F 6.8 °F 79% 29.82 in 2.5 mi NNW 20.7 mph - 0.00 in Snow Light Snow
8:53 PM 12.0 °F -5.6 °F 7.0 °F 80% 30.01 in 2.5 mi NNW 18.4 mph - 0.01 in Snow Light Snow
9:53 PM 10.9 °F -7.0 °F 6.1 °F 81% 30.03 in 2.0 mi NNW 18.4 mph - 0.00 in Snow Light Snow
10:26 PM 10.4 °F -7.7 °F 5.0 °F 79% 29.83 in 1.8 mi NNW 18.4 mph - 0.00 in Snow Light Snow
10:50 PM 10.4 °F -8.2 °F 5.0 °F 79% 29.84 in 1.2 mi NNW 19.6 mph - 0.01 in Snow Light Snow
10:53 PM 10.9 °F -5.9 °F 5.0 °F 77% 30.04 in 1.5 mi NNW 16.1 mph - 0.01 in Snow Light Snow
11:18 PM 10.4 °F -6.0 °F 5.0 °F 79% 29.84 in 2.0 mi NNW 15.0 mph - 0.00 in Snow Light Snow
11:53 PM 10.0 °F -7.1 °F 5.0 °F 80% 30.05 in 2.0 mi NNW 16.1 mph - 0.00 in Snow Light Snow